Regional Weather Roundup
Issued by NWS Northern Indiana

Home | Current Version | Previous Version | Text Only | Print | Product List | Glossary On
Versions: 1 2 3 4 5 6 7 8 9 10 11 12 13 14 15 16 17 18 19 20 21 22 23 24 25 26 27 28 29 30 31 32 33 34 35 36 37 38 39 40 41 42 43 44 45 46 47 48 49 50
000
ASUS43 KIWX 021010
RWRIWX

KIWX WEATHER ROUNDUP
NATIONAL WEATHER SERVICE NORTHERN INDIANA
600 AM EDT THU JUL 02 2015

NOTE: "FAIR" INDICATES FEW OR NO CLOUDS BELOW 12,000 FEET WITH NO
SIGNIFICANT WEATHER AND/OR OBSTRUCTIONS TO VISIBILITY.

* THESE STATIONS ARE NOT UNDER NWS QUALITY CONTROL. THEY ALSO MAY NOT
  REPORT WEATHER SUCH AS PRECIPITATION OR FOG.

INZ001>027-021100-
NORTHERN INDIANA

CITY           SKY/WX    TMP DP  RH WIND       PRES   REMARKS
VALPARAISO     PTCLDY    54  52  93 NE3       29.95F
LAPORTE*       PTCLDY    56  56 100 NE7       29.95
SOUTH BEND     PTCLDY    54  52  93 NE7       29.97S
GOSHEN         MOCLDY    55  53  93 N7        29.96R
ANGOLA*          N/A     54  39  58 NE5       29.95S
FORT WAYNE     CLOUDY    59  56  89 N5        29.93F
PERU/GRISSOM   CLOUDY    57  54  89 NE8       29.92S

$$
INZ028>050-021100-
CENTRAL INDIANA

CITY           SKY/WX    TMP DP  RH WIND       PRES   REMARKS
LAFAYETTE      CLOUDY    57  53  86 NE8       29.93S
KOKOMO*        CLOUDY    59  54  82 NE7       29.92S
MUNCIE*        CLOUDY    62  56  80 NE5       29.92R
INDIANAPOLIS   CLOUDY    62  54  74 NE9       29.89R

$$
MIZ043>046-050>051-056>058-064>065-071>073-077>080-021100-
SOUTHWEST LOWER MICHIGAN

CITY           SKY/WX    TMP DP  RH WIND       PRES   REMARKS
BATTLE CREEK   PTCLDY    54  51  90 NE6       29.98F
BENTON HARBOR  CLEAR     50  49  96 NE3       29.97F
COLDWATER*     PTCLDY    54  54  99 NE7       29.97R
HILLSDALE*     CLEAR     55  55 100 NE5       29.97S FOG
HOLLAND        CLEAR     53  51  93 CALM      30.00S
GRAND RAPIDS   PTCLDY    53  51  93 NE3       30.00R
KALAMAZOO      CLEAR     54  51  90 CALM      29.98F
STURGIS*       PTCLDY    54  54 100 N6        29.96S
THREE RIVERS*  FAIR      54  52  95 CALM      29.97S

$$
OHZ001>008-015>018-024>025-021100-
NORTHWEST OHIO

CITY           SKY/WX    TMP DP  RH WIND       PRES   REMARKS
DEFIANCE       MOCLDY    61  56  83 NE5       29.94S
FINDLAY        MOCLDY    63  60  90 NE9       29.92F
TOLEDO EXPRESS MOCLDY    59  57  93 NE3       29.94S
TOLEDO METCALF MOCLDY    64  58  80 NE6       29.96R
LIMA           CLOUDY    61  59  93 NE6       29.92S

$$
AND FOR LAKE MICHIGAN COASTAL AND OPEN LAKE BUOY OBSERVATIONS

STATION/POSITION TEMP    WIND        PRES    VSBY  WAVE
                 AIR SEA DIR/SP/G                  HT/PER
                 (F)     (DEG/KT/KT) (MB)    (MI)  (FT/S)
CALUMET HARBOR    57     350/  8/ 11   N/A
MICHIGAN CITY     58      20/ 12/ 13   N/A
BURNS HARBOR      61      50/ 13/ 15 1015.2F
SAINT JOSEPH      53      10/  2/  5   N/A
4 MI NW BRIDGMAN  57 63                N/A           3/ 4
MICHIGAN CITY     60 64   70/ 14/ 16   N/A           3/ 5

$$
&&


USA.gov is the U.S. government's official web portal to all federal, state and local government web resources and services.